Location: Hurecourt
(47.9030°N, 6.0653°E)
Time: 04:41:20
(UTC+00:00)

ERS-2 - Pass Details

Date: 14 July 2020
Orbit: 493 x 498 km, 98.5° (Epoch: 06 August)

Event Time Altitude Azimuth Distance (km) Brightness Sun altitude
Rises 02:29:07 0° 148° (SSE) 2,570 5.5 -11.0°
Reaches altitude 10° 02:31:14 10° 142° (SE) 1,692 4.7 -10.8°
Maximum altitude 02:34:42 43° 70° (ENE) 703 3.4 -10.4°
Drops below altitude 10° 02:38:11 10° 358° (N) 1,703 5.6 -10.0°
Sets 02:40:19 0° 352° (N) 2,590 6.4 -9.8°
